CDT,Max TemperatureF,Mean TemperatureF,Min TemperatureF,Max Dew PointF,MeanDew PointF,Min DewpointF,Max Humidity, Mean Humidity, Min Humidity, Max Sea Level PressureIn, Mean Sea Level PressureIn, Min Sea Level PressureIn, Max VisibilityMiles, Mean VisibilityMiles, Min VisibilityMiles, Max Wind SpeedMPH, Mean Wind SpeedMPH, Max Gust SpeedMPH,PrecipitationIn, CloudCover, Events, WindDirDegrees
2014-4-1,55,44,34,44,32,24,78,62,46,30.09,29.93,29.74,10,10,10,29,17,37,0.00,3,,249
2014-4-2,48,42,37,34,32,29,83,67,56,30.16,30.09,30.02,10,10,10,16,7,24,0.00,7,Rain-Thunderstorm,34
2014-4-3,44,40,37,42,40,33,98,93,82,30.01,29.81,29.67,10,7,2,22,13,30,1.53,8,Rain-Thunderstorm,63
2014-4-4,46,42,38,46,39,33,99,94,82,30.03,29.70,29.51,10,7,0,31,15,39,0.00,,Fog-Rain,257
2014-4-5,,,,,,,,,,30.22,30.16,30.04,10,10,10,14,6,24,0.00,,,280
2014-4-6,,,,,,,,,,30.18,30.08,29.94,10,10,10,10,6,16,0.00,,,121
2014-4-7,,,,,,,,,,29.93,29.73,29.62,10,10,10,15,5,20,0.00,,,28
2014-4-8,55,48,39,46,41,37,95,74,60,29.93,29.77,29.66,10,9,4,13,5,17,0.05,,Rain-Thunderstorm,314
2014-4-9,61,46,32,42,35,31,99,66,33,30.05,29.98,29.91,10,7,0,15,4,25,0.00,,Fog,215
2014-4-10,62,54,41,49,41,32,77,63,46,29.96,29.83,29.75,10,10,10,25,13,34,0.00,,Rain,222
2014-4-11,68,51,34,38,33,28,87,52,22,30.06,30.02,29.96,10,10,10,10,4,,0.00,,Thunderstorm,240
2014-4-12,78,60,42,57,48,34,82,58,34,30.05,29.88,29.72,10,10,10,28,11,37,0.00,,,174
2014-4-13,69,64,59,61,57,53,94,79,64,29.78,29.69,29.47,10,10,2,31,15,41,0.15,,Rain-Thunderstorm,189
2014-4-14,63,48,32,61,43,30,99,89,72,30.00,29.68,29.41,10,8,1,30,19,40,0.09,,Rain-Snow,295
2014-4-15,38,32,27,29,22,14,90,67,43,30.22,30.13,29.99,10,10,10,14,8,21,0.03,4,,307
2014-4-16,52,40,27,29,26,23,82,57,36,30.33,30.24,30.14,10,10,10,22,10,29,0.00,0,,137
2014-4-17,64,50,36,43,36,28,78,58,40,30.28,30.21,30.16,10,10,10,20,10,25,0.00,2,,211
2014-4-18,62,50,37,44,39,29,90,68,42,30.36,30.30,30.25,10,10,7,16,6,23,0.00,3,,1
2014-4-19,68,50,33,40,35,28,90,58,32,30.37,30.31,30.22,10,10,10,14,8,24,0.00,0,,96
2014-4-20,77,58,39,44,39,32,74,48,28,30.26,30.17,30.05,10,10,10,13,8,17,0.00,0,,154
2014-4-21,76,62,49,59,51,43,97,71,45,30.05,29.93,29.83,10,8,2,21,7,29,0.09,4,Rain,209
2014-4-22,60,48,37,56,39,31,97,66,35,30.08,29.95,29.82,10,10,3,15,9,23,0.00,1,,346
2014-4-23,56,44,33,37,31,30,86,63,39,30.18,30.12,30.03,10,10,10,16,7,17,0.00,2,Rain,34
2014-4-24,66,54,41,41,39,36,90,57,35,30.05,29.88,29.65,10,10,10,24,11,32,0.00,5,Rain-Thunderstorm,108
2014-4-25,70,60,49,49,44,37,95,65,31,29.86,29.77,29.59,10,10,3,21,8,29,0.00,3,Rain,289
2014-4-26,57,48,39,47,39,33,90,66,47,30.01,29.95,29.86,10,10,10,21,7,29,0.00,3,,37
2014-4-27,69,54,39,48,40,35,82,60,38,30.00,29.89,29.79,10,10,10,28,17,34,0.04,5,Rain-Thunderstorm,90
2014-4-28,58,51,45,53,47,39,97,86,70,29.83,29.63,29.52,10,9,2,32,17,41,0.09,8,Rain-Thunderstorm,89
2014-4-29,66,58,49,55,50,43,99,83,56,29.69,29.56,29.48,10,7,0,21,9,34,0.10,7,Fog-Rain-Thunderstorm,171
2014-4-30,51,48,44,49,44,37,96,86,66,29.84,29.77,29.69,10,9,2,20,7,26,0.03,7,Rain,207